Date,TemperatureHighF,TemperatureAvgF,TemperatureLowF,DewpointHighF,DewpointAvgF,DewpointLowF,HumidityHigh,HumidityAvg,HumidityLow,PressureMaxIn,PressureMinIn,WindSpeedMaxMPH,WindSpeedAvgMPH,GustSpeedMaxMPH,PrecipitationSumIn
2012-1-1,52.7,46.4,43.7,42.2,39.4,36.6,89,77,63,30.27,29.85,30,14,33,0.00
2012-1-2,61.7,45.5,39.2,44.4,38.7,35.4,89,77,51,30.32,30.24,14,5,17,0.00
2012-1-3,64.0,46.3,37.4,48.5,41.5,34.5,97,84,55,30.30,30.23,10,3,14,0.00
2012-1-4,62.2,49.5,39.9,58.6,45.8,39.7,100,88,65,30.29,30.05,11,2,12,0.00
2012-1-5,60.4,50.0,43.3,51.1,47.0,43.1,99,90,67,30.06,29.73,17,4,20,0.00
2012-1-6,59.0,55.1,50.5,59.0,50.3,42.9,100,85,67,29.73,29.08,43,20,43,0.53
2012-1-7,56.8,48.4,43.3,49.0,41.0,37.0,88,75,69,29.73,29.26,36,14,36,0.00
2012-1-8,50.0,44.5,40.1,43.2,37.8,32.2,93,77,66,29.90,29.73,16,6,17,0.05
2012-1-9,57.4,44.6,36.1,39.9,33.8,30.0,81,67,42,30.03,29.88,18,4,18,0.00
2012-1-10,46.6,41.2,37.2,40.9,37.6,34.4,100,87,74,30.11,30.00,21,10,23,0.14
2012-1-11,43.3,39.2,36.7,43.1,38.9,36.4,100,99,95,30.21,30.09,22,11,28,0.27
2012-1-12,45.9,42.1,38.1,41.4,37.9,33.8,100,85,72,30.29,30.21,24,10,24,0.01
2012-1-13,56.7,46.4,36.1,45.4,39.6,33.4,96,78,63,30.25,29.98,29,9,29,0.00
2012-1-14,64.0,49.6,42.3,52.5,45.4,38.7,100,87,56,30.01,29.88,15,5,21,0.01
2012-1-15,46.2,41.1,39.0,40.9,34.4,28.8,96,77,63,29.99,29.89,21,9,24,0.07
2012-1-16,44.2,38.0,34.0,32.2,26.1,21.7,81,62,47,30.13,29.97,21,10,25,0.00
2012-1-17,47.8,36.9,30.0,30.9,25.5,22.5,80,64,48,30.28,30.15,21,6,21,0.00
2012-1-18,48.6,38.9,29.3,35.2,28.7,24.4,91,68,48,30.43,30.26,20,6,20,0.00
2012-1-19,56.7,42.6,35.4,35.8,30.7,24.3,80,64,34,30.47,30.31,11,5,11,0.00
2012-1-20,59.9,51.3,41.2,47.5,41.8,35.3,84,71,56,30.29,29.97,40,15,40,0.18
2012-1-21,60.3,51.7,42.3,49.9,42.0,30.6,89,70,52,29.97,29.79,28,9,36,0.00
2012-1-22,57.9,46.9,34.5,40.9,32.6,23.6,76,58,37,30.03,29.92,27,8,28,0.00
2012-1-23,65.3,53.3,43.3,49.5,44.8,37.5,90,74,50,30.06,30.00,18,6,18,0.00
2012-1-24,58.8,52.8,48.6,58.2,51.8,45.1,100,96,84,30.04,29.73,17,4,20,0.19
2012-1-25,60.1,50.8,43.7,53.8,47.7,39.2,100,90,69,29.73,29.54,25,9,29,0.05
2012-1-26,52.3,43.1,37.6,43.8,38.0,34.4,100,83,59,29.91,29.58,26,8,27,0.04
2012-1-27,47.5,42.2,38.8,39.9,36.1,33.0,95,79,69,30.30,29.91,27,12,27,0.00
2012-1-28,43.7,41.5,39.6,39.9,37.7,35.0,95,86,79,30.35,30.25,21,8,21,0.00
2012-1-29,45.3,41.7,39.0,38.5,35.1,31.8,90,77,69,30.26,30.12,27,11,29,0.00
2012-1-30,40.6,36.5,32.4,32.8,30.0,26.7,84,77,69,30.14,30.06,33,12,42,0.04
2012-1-31,34.5,32.1,28.9,29.5,26.4,22.0,87,79,72,30.16,30.06,32,12,32,0.00
2012-2-1,42.1,35.7,31.6,33.8,29.4,25.4,91,78,65,30.21,30.12,24,9,26,0.00
2012-2-2,51.1,41.5,36.1,50.8,39.9,30.0,100,94,76,30.14,29.99,8,3,8,0.11
2012-2-3,59.2,49.4,41.9,57.8,49.1,41.6,99,99,93,30.18,30.13,8,2,8,0.00
2012-2-4,62.2,53.7,45.0,59.9,52.4,44.7,100,95,78,30.20,30.13,23,6,23,0.05
2012-2-5,63.9,56.5,51.6,57.9,54.4,51.3,100,93,70,30.15,30.02,24,9,24,0.00
2012-2-6,57.9,54.6,50.9,56.1,53.4,50.6,100,96,81,30.03,29.23,41,14,45,0.44
2012-2-7,54.3,48.8,43.7,52.2,48.3,43.4,100,98,87,29.67,29.30,30,11,30,0.39
2012-2-8,45.1,39.2,35.2,44.9,37.4,33.6,100,93,84,30.06,29.67,32,16,35,0.07
2012-2-9,42.1,38.0,35.4,37.0,34.3,32.0,94,86,77,30.10,30.04,27,10,29,0.00
2012-2-10,44.8,41.0,37.2,40.3,37.4,34.0,91,87,79,30.26,30.08,17,8,19,0.00
2012-2-11,56.1,46.9,41.5,55.5,45.9,37.4,100,96,84,30.25,30.16,11,3,17,0.09
2012-2-12,59.4,50.1,46.0,53.6,49.1,45.8,100,97,79,30.17,29.66,11,4,14,0.38
2012-2-13,62.1,52.1,46.2,57.6,47.9,40.1,100,87,60,30.02,29.84,20,6,20,0.01
2012-2-14,59.5,48.1,41.7,48.5,43.3,38.4,100,84,61,29.91,29.76,16,6,16,0.05
2012-2-15,52.5,46.0,39.4,46.1,39.2,32.9,100,78,58,29.87,29.75,28,11,33,0.17
2012-2-16,50.0,44.4,39.0,44.8,38.9,30.9,100,81,69,29.77,29.64,40,10,40,0.04
2012-2-17,45.0,40.3,36.0,34.9,28.3,25.9,75,62,55,30.06,29.75,40,15,40,0.06
2012-2-18,54.5,44.5,34.2,37.7,28.9,22.9,75,56,38,30.19,30.06,24,6,27,0.00
2012-2-19,65.3,48.6,37.9,44.4,38.0,31.4,86,68,43,30.37,30.18,14,3,15,0.00
2012-2-20,56.8,49.0,41.5,55.7,47.7,41.3,100,96,80,30.42,30.35,8,2,8,0.01
2012-2-21,60.4,50.9,43.2,48.8,45.1,42.6,99,82,59,30.42,30.32,18,7,18,0.00
2012-2-22,52.5,50.1,46.9,49.9,46.7,44.1,100,88,80,30.32,30.21,18,9,18,0.17
2012-2-23,62.8,51.7,46.6,50.8,45.4,39.4,100,80,58,30.24,30.09,17,5,17,0.01
2012-2-24,67.5,54.4,43.9,48.7,41.5,37.8,87,64,38,30.11,30.01,21,6,21,0.00
2012-2-25,74.3,59.1,48.0,51.0,44.4,38.6,75,59,41,30.08,29.94,14,6,17,0.00
2012-2-26,71.1,56.3,48.7,59.4,49.9,43.5,100,80,51,29.94,29.66,13,4,13,0.00
2012-2-27,54.1,46.7,40.5,54.1,45.2,36.8,100,95,85,29.70,29.59,52,16,53,0.47
2012-2-28,42.3,37.4,31.5,38.4,33.5,28.4,100,86,69,29.96,29.69,44,17,52,0.38
2012-2-29,51.8,40.4,32.7,41.3,31.5,18.3,100,71,52,29.95,29.62,26,9,27,0.05
2012-3-1,44.4,39.9,36.3,39.1,35.3,32.5,100,84,65,30.23,29.89,27,8,29,0.04
2012-3-2,61.2,46.7,34.9,46.8,37.4,32.8,97,73,45,30.23,30.09,21,7,125,0.00
2012-3-3,70.3,56.4,45.5,50.1,46.1,34.9,97,71,41,30.10,29.98,23,9,28,0.00
2012-3-4,63.3,53.1,45.7,48.6,41.3,33.6,87,65,41,30.19,30.06,19,6,21,0.00
2012-3-5,54.7,49.9,46.2,54.4,49.1,43.2,100,97,86,30.11,29.89,12,4,12,0.44
2012-3-6,61.9,51.9,46.4,50.2,46.9,43.0,99,84,58,30.19,29.95,20,7,20,0.00
2012-3-7,61.2,51.4,44.4,50.6,46.8,42.2,94,85,66,30.26,30.18,12,3,14,0.01
2012-3-8,64.9,54.0,46.0,55.5,50.7,45.0,100,90,67,30.25,30.15,14,4,17,0.00
2012-3-9,67.5,55.8,48.7,59.5,53.1,48.5,100,91,69,30.41,30.23,24,6,24,0.00
2012-3-10,59.7,50.8,46.4,50.4,41.0,30.8,100,71,44,30.41,30.11,27,8,35,0.00
2012-3-11,50.4,48.2,46.8,39.1,37.4,35.9,70,66,61,30.13,30.05,17,8,19,0.00
2012-3-12,47.1,43.3,41.2,42.1,39.7,37.9,94,87,76,29.86,29.63,28,12,28,0.00
2012-3-13,46.0,42.7,40.8,41.0,38.6,35.6,94,85,75,30.03,29.81,36,17,36,0.11
2012-3-14,57.9,48.4,41.9,42.5,38.4,35.5,87,69,47,30.20,30.02,23,8,23,0.00
2012-3-15,63.0,51.8,41.7,44.2,40.3,36.4,89,66,45,30.26,30.15,22,7,22,0.00
2012-3-16,57.6,49.1,43.3,45.7,41.6,38.1,91,76,61,30.48,30.26,16,7,16,0.09
2012-3-17,62.6,47.9,42.1,52.3,44.8,40.7,100,90,67,30.47,30.42,8,4,9,0.00
2012-3-21,74.3,62.8,55.0,52.8,49.3,47.1,79,63,44,30.40,30.37,14,4,15,0.00
2012-3-22,73.6,63.0,51.8,52.4,44.1,34.9,75,52,34,30.41,30.35,17,6,18,0.00
2012-3-23,70.0,62.2,53.6,46.0,41.9,36.8,61,48,39,30.38,30.25,22,7,22,0.00
2012-3-24,76.3,61.9,50.5,51.6,43.3,34.1,82,53,25,30.26,30.14,20,5,20,0.00
2012-3-25,74.1,60.9,50.7,52.8,47.5,42.9,80,63,36,30.15,30.08,15,5,15,0.00
2012-3-26,77.2,64.5,54.1,50.2,43.6,39.1,77,48,34,30.09,30.01,16,7,20,0.00
2012-3-27,62.2,56.9,48.7,50.5,43.3,37.3,84,61,46,30.24,30.08,29,9,29,0.00
2012-3-28,64.9,55.9,48.0,50.6,46.0,40.8,90,71,46,30.14,30.01,20,9,23,0.00
2012-3-29,71.4,58.3,47.5,51.3,46.7,38.2,87,67,47,30.14,29.95,25,8,29,0.00
2012-3-30,72.3,63.0,54.5,51.8,46.6,41.2,81,57,35,29.95,29.74,40,18,40,0.17
2012-3-31,73.0,61.7,50.2,52.2,46.2,42.1,88,59,37,29.92,29.81,17,5,17,0.00
2012-4-1,72.5,61.7,52.2,55.8,50.6,46.8,96,69,48,29.83,29.74,26,9,26,0.00
2012-4-2,63.7,56.4,49.8,51.0,48.0,44.4,87,74,60,30.09,29.83,21,7,21,0.00
2012-4-3,71.4,59.3,48.4,57.5,52.4,45.8,96,79,58,30.14,30.05,15,5,15,0.00
2012-4-4,75.4,62.7,55.4,63.0,57.6,45.2,100,85,56,30.13,29.84,17,7,17,0.02
2012-4-5,68.7,60.9,55.8,62.7,58.0,53.9,100,91,74,30.06,29.89,15,5,18,0.02
2012-4-6,78.1,65.3,52.9,62.5,56.6,52.1,100,76,53,29.89,29.80,17,6,23,0.00
2012-4-7,82.8,68.6,58.5,58.2,53.6,48.6,87,61,34,29.85,29.68,17,7,18,0.00
2012-4-8,75.0,64.5,54.3,59.4,52.1,42.5,94,66,46,29.69,29.51,33,11,38,0.06
2012-4-9,67.6,54.3,45.3,57.1,48.4,44.7,100,82,50,29.60,29.50,29,11,33,0.40
2012-4-10,51.4,48.1,46.0,47.8,44.5,41.8,100,87,76,29.95,29.60,31,13,32,0.01
2012-4-11,66.6,55.4,44.6,49.9,45.5,41.1,91,71,50,29.95,29.84,14,6,17,0.00
2012-4-12,71.4,60.8,51.8,59.7,51.7,45.7,92,73,53,29.87,29.78,17,6,17,0.00
2012-4-13,68.5,59.7,49.6,63.6,57.1,47.7,100,92,76,29.83,29.64,21,6,21,0.00
2012-4-14,71.2,63.6,57.9,65.1,58.3,49.9,100,84,62,29.66,29.48,38,11,38,0.04
2012-4-15,70.5,62.2,54.9,55.1,49.8,44.8,86,66,43,29.80,29.57,30,11,30,0.00
2012-4-16,74.8,62.8,54.7,58.2,52.1,47.4,90,69,45,29.90,29.80,21,8,21,0.00
2012-4-17,74.7,64.0,57.4,60.4,54.9,50.6,92,73,50,29.88,29.56,19,8,19,0.00
2012-4-18,64.0,57.4,50.7,58.7,52.5,48.7,100,85,64,29.59,29.07,42,18,50,1.63
2012-4-19,72.3,62.5,55.2,54.3,51.0,45.8,84,67,51,29.85,29.59,30,12,34,0.02
2012-4-20,74.3,63.4,52.3,60.0,54.3,47.3,100,73,49,29.85,29.74,29,9,31,0.00
2012-4-21,71.6,63.5,54.9,54.4,49.0,44.0,83,61,40,29.99,29.78,30,13,36,0.02
2012-4-22,75.4,64.1,55.8,51.8,47.4,43.2,75,56,36,30.07,29.98,27,9,27,0.00
2012-4-23,78.1,66.7,56.3,56.0,51.5,46.0,77,59,43,30.06,30.00,17,7,17,0.00
2012-4-24,79.9,65.7,58.3,61.8,54.5,46.9,79,67,50,30.04,29.97,14,5,14,0.00
2012-4-25,82.9,68.5,56.7,62.1,52.6,43.4,76,58,37,30.02,29.92,18,7,18,0.00
2012-4-26,80.1,69.6,59.5,56.5,49.8,42.1,72,52,27,30.09,29.98,20,7,20,0.00
2012-4-27,80.8,67.8,54.3,55.7,50.2,44.6,75,55,32,30.08,30.02,20,7,22,0.00
2012-4-28,72.3,64.7,57.7,59.7,53.2,48.6,85,67,53,30.08,30.05,21,9,24,0.00
2012-4-29,80.2,69.2,57.0,61.5,54.1,48.4,90,61,39,30.07,29.99,22,8,24,0.00
2012-4-30,83.7,76.0,70.3,53.3,49.6,45.5,47,40,32,30.02,29.92,35,14,38,0.00
2012-5-1,86.4,76.2,68.9,60.3,50.0,44.7,46,40,28,29.99,29.94,20,9,23,0.00
2012-5-2,87.3,77.3,68.7,55.2,49.2,41.1,48,38,22,29.96,29.85,21,9,22,0.00
2012-5-3,87.1,75.7,68.2,59.4,52.2,45.5,64,45,30,29.86,29.75,18,7,21,0.00
2012-5-4,85.5,75.5,62.4,62.0,55.4,51.3,69,51,35,29.81,29.73,13,6,16,0.00
2012-5-5,83.1,73.4,61.5,64.7,58.4,52.3,85,60,45,29.91,29.80,16,6,18,0.00
2012-5-6,86.4,75.5,65.3,59.0,54.0,48.6,60,48,35,30.01,29.88,21,8,22,0.00
2012-5-7,88.3,77.3,64.0,61.3,56.1,49.9,65,49,35,30.03,29.98,16,6,17,0.00
2012-5-8,88.5,77.1,67.8,59.7,54.2,50.2,61,46,30,30.00,29.93,22,6,22,0.00
2012-5-9,82.8,73.9,64.6,62.4,56.7,52.6,68,56,45,30.06,29.95,21,7,21,0.00
2012-5-10,79.0,70.7,65.5,63.0,59.1,51.5,78,67,51,30.13,30.04,34,11,34,0.00
2012-5-11,73.9,68.5,62.8,63.2,60.6,58.2,86,76,66,30.14,30.09,26,10,26,0.00
2012-5-12,82.9,73.8,66.0,62.1,59.2,55.1,79,62,42,30.09,29.92,27,12,27,0.00
2012-5-13,88.2,75.5,66.4,62.0,58.0,54.4,79,55,39,29.93,29.83,16,7,19,0.00
2012-5-14,81.5,71.7,61.9,67.7,60.4,53.0,100,68,53,29.89,29.76,17,6,17,0.00
2012-5-15,76.1,68.4,62.6,65.4,55.7,46.7,99,66,46,29.81,29.68,31,11,31,0.01
2012-5-16,63.9,61.2,57.6,53.4,49.5,46.1,78,66,57,29.81,29.78,23,11,29,0.00
2012-5-25,78.8,67.8,59.4,64.2,59.1,56.3,92,75,52,29.99,29.85,17,6,17,0.00
2012-5-26,79.5,70.4,60.8,66.3,60.1,54.2,96,71,52,30.02,29.97,14,6,14,0.02
2012-5-27,77.5,67.8,58.8,68.6,63.9,58.5,100,88,71,30.01,29.91,18,4,18,0.00
2012-5-28,78.1,68.4,61.3,65.0,60.9,57.7,100,79,52,29.93,29.86,19,8,19,0.00
2012-5-29,78.3,67.0,60.8,63.7,58.7,54.0,100,75,57,29.93,29.88,18,6,18,0.00
2012-5-30,79.7,66.5,59.2,62.0,57.9,54.4,95,75,50,30.04,29.91,19,6,19,0.11
2012-5-31,80.1,68.9,56.3,63.2,58.9,53.9,100,72,53,30.10,30.02,18,6,18,0.00
2012-6-1,83.8,74.3,59.4,69.2,59.7,55.5,90,63,42,30.10,30.02,16,5,17,0.00
2012-6-2,82.6,69.0,63.1,65.3,58.9,53.3,82,71,52,30.09,30.03,9,4,10,0.13
2012-6-11,92.1,83.6,77.7,66.6,62.8,59.9,60,50,40,29.82,29.80,8,4,8,0.00
2012-6-12,95.0,85.0,72.7,69.8,63.9,59.6,69,51,35,29.86,29.79,14,6,14,0.00
2012-6-14,100.0,88.3,75.0,64.9,60.6,56.7,58,40,29,29.95,29.81,21,8,21,0.00
2012-6-15,91.2,84.3,76.3,69.0,63.9,54.6,57,50,42,30.04,29.95,31,12,31,0.00
2012-6-16,90.1,82.6,76.3,64.6,60.7,55.5,60,48,36,30.04,29.96,53,18,53,1.50
2012-6-17,88.9,81.7,74.5,59.2,55.4,48.2,52,41,34,30.04,29.94,57,16,57,0.92
2012-6-18,88.5,81.2,73.9,58.8,52.7,46.1,50,38,30,30.03,29.95,29,15,29,0.00
2012-6-19,89.8,81.9,73.9,64.7,59.7,55.2,55,47,38,29.96,29.89,28,14,28,0.01
2012-6-20,91.0,83.3,73.8,67.3,62.9,58.7,65,51,39,29.90,29.83,30,13,30,0.00
2012-6-21,95.7,84.9,75.9,61.8,53.8,46.5,53,35,25,29.85,29.77,25,11,29,0.00
2012-6-28,88.3,80.1,72.9,65.2,60.2,53.1,69,51,41,30.01,29.95,24,12,24,0.00
2012-6-29,89.4,80.9,73.4,63.5,57.5,50.3,60,46,35,29.98,29.94,24,10,24,0.00
2012-6-30,88.2,82.1,76.1,62.5,58.4,54.8,53,45,34,30.00,29.95,33,12,33,0.01
2012-7-1,90.5,81.7,75.6,61.9,57.9,54.2,58,45,32,30.00,29.94,31,10,31,0.00
2012-7-2,84.4,78.6,72.3,62.4,57.9,51.3,59,49,41,30.04,29.95,41,16,41,0.14
2012-7-3,88.2,79.9,72.5,65.2,57.8,49.1,57,47,34,30.04,29.98,41,12,41,0.51
2012-7-4,92.8,82.3,72.7,60.0,56.8,52.3,56,43,28,29.99,29.87,23,10,23,0.00
2012-7-5,97.0,85.2,72.5,65.0,60.8,56.7,68,46,28,29.91,29.87,22,8,22,0.00
2012-7-6,98.4,87.2,77.2,69.9,64.0,57.7,60,46,35,29.91,29.86,20,8,21,0.00
2012-7-7,96.8,86.4,75.9,71.3,67.3,63.8,68,54,39,29.91,29.83,27,7,27,0.00
2012-7-8,97.9,88.7,79.9,69.7,66.2,62.0,63,48,36,29.86,29.82,23,9,25,0.00
2012-7-9,95.7,89.0,78.3,73.9,66.6,60.2,61,48,42,29.88,29.84,22,8,22,0.00
2012-7-10,98.8,90.6,79.3,70.8,66.4,61.4,60,46,36,29.92,29.86,21,6,21,0.00
2012-7-11,98.6,89.4,79.0,72.3,67.4,62.6,63,49,36,29.94,29.89,19,6,19,0.00
2012-7-12,103.5,92.0,78.3,70.5,65.1,59.4,60,43,27,29.94,29.86,17,5,17,0.00
2012-7-13,99.9,90.4,79.9,74.0,65.7,57.5,61,45,32,29.88,29.81,19,6,19,0.00
2012-7-14,98.6,87.8,75.7,76.1,67.8,60.5,72,53,38,29.92,29.83,27,8,27,0.00
2012-7-15,100.0,88.7,81.5,67.4,61.8,57.2,51,42,27,29.92,29.89,21,7,24,0.00
2012-7-20,95.0,84.8,75.2,65.7,59.9,51.5,61,44,30,29.93,29.87,23,11,23,0.00
2012-7-21,99.9,87.3,75.9,65.2,57.7,43.4,58,38,19,29.90,29.82,24,10,24,0.00
2012-7-22,98.2,87.8,75.7,69.5,56.8,46.0,56,36,23,29.86,29.77,19,8,19,0.00
2012-7-23,94.6,86.6,80.8,73.3,65.3,57.6,71,50,35,29.91,29.82,26,12,26,0.00
2012-7-24,96.6,85.0,77.4,77.4,71.5,65.4,88,65,42,29.92,29.88,21,8,21,0.00
2012-7-25,96.6,85.7,77.7,78.1,75.2,70.7,90,72,51,29.91,29.82,15,6,15,0.00
2012-7-26,99.1,88.0,78.3,77.7,71.0,63.4,72,58,45,29.84,29.78,17,8,17,0.00
2012-8-12,88.0,79.2,71.8,70.9,67.7,63.4,82,69,50,29.93,29.81,22,8,22,0.00
2012-8-13,92.7,80.5,70.9,74.6,67.5,61.7,91,67,44,29.95,29.90,15,4,15,0.00
2012-8-14,92.7,82.7,73.6,71.5,66.0,60.1,81,58,42,29.96,29.90,15,5,15,0.00
2012-8-15,94.3,84.0,75.0,72.6,66.3,61.9,79,57,40,29.95,29.89,21,7,21,0.00
2012-8-16,96.6,86.0,76.6,74.8,66.8,59.8,82,56,32,29.94,29.90,18,7,18,0.00
2012-8-17,93.2,84.4,73.8,74.0,62.9,52.4,79,50,36,29.99,29.90,21,9,21,0.00
2012-8-18,88.9,83.2,77.7,66.4,60.7,53.8,53,47,38,30.05,29.96,27,12,27,0.00
2012-8-19,86.9,80.9,75.9,65.1,59.9,54.7,61,49,36,30.11,30.04,31,14,35,0.00
2012-8-20,86.7,79.9,75.0,62.7,58.9,54.7,58,49,37,30.13,30.05,32,17,40,0.00
2012-8-21,90.5,82.4,75.0,62.0,58.4,50.4,58,45,26,30.06,29.98,27,11,31,0.00
2012-8-22,98.1,87.8,79.9,69.2,62.2,56.8,57,43,30,30.02,29.96,22,8,23,0.00
2012-8-23,98.6,89.9,78.3,65.3,60.9,55.2,49,38,31,30.01,29.94,21,8,21,0.00
2012-8-24,100.9,91.1,79.9,62.8,57.8,49.6,46,33,25,29.94,29.90,24,9,24,0.00
2012-8-25,100.8,90.1,79.2,63.4,58.8,54.7,44,36,26,29.92,29.86,21,9,21,0.00
2012-8-26,98.6,88.0,80.2,76.2,61.3,52.8,84,43,27,29.87,29.78,17,7,17,0.00
2012-8-27,101.5,88.4,78.3,73.0,67.1,61.0,74,51,31,29.83,29.72,18,7,18,0.00
2012-8-28,86.2,78.5,70.9,67.3,60.3,55.4,74,54,42,30.08,29.83,37,16,37,0.05
2012-8-29,87.1,78.6,70.9,62.8,55.8,44.7,72,47,30,30.10,30.03,28,11,28,0.00
2012-8-30,90.1,79.8,70.9,62.6,52.5,24.2,67,41,13,30.06,29.98,22,9,22,0.00
2012-8-31,90.5,81.3,74.3,58.3,51.7,40.4,47,36,26,30.00,29.95,27,12,27,0.00
2012-9-1,78.6,76.9,74.8,60.0,54.1,49.4,57,46,36,29.99,29.94,23,11,24,0.00
2012-9-6,91.2,79.3,69.6,74.8,71.2,68.8,100,78,53,29.94,29.90,18,5,18,0.00
2012-9-7,87.6,80.2,72.3,70.6,65.2,57.8,83,61,45,30.02,29.91,27,11,27,0.00
2012-9-8,83.1,77.5,73.4,65.5,60.7,56.9,71,57,47,30.05,29.98,27,13,27,0.00
2012-9-9,90.0,79.2,71.6,61.6,57.1,51.1,66,48,32,30.03,29.97,29,12,29,0.01
2012-9-10,83.3,77.8,72.3,62.4,58.0,52.9,66,51,42,30.12,30.02,29,11,29,0.00
2012-9-11,83.5,75.1,69.3,62.8,60.1,57.1,69,60,46,30.08,29.98,22,11,22,0.00
2012-9-12,82.2,73.6,66.6,66.3,62.9,58.4,86,70,52,30.01,29.88,15,6,15,0.00
2012-9-13,86.2,75.6,65.8,77.1,69.7,64.1,100,83,58,29.89,29.82,17,5,19,0.00
2012-9-14,88.7,77.4,69.4,76.8,71.9,67.3,99,85,52,29.97,29.85,18,6,21,0.00
2012-9-15,89.2,76.2,68.4,72.8,67.4,57.8,99,76,56,29.93,29.81,17,6,20,0.00
2012-9-16,79.5,73.1,67.6,69.7,63.6,58.7,87,72,60,29.89,29.81,19,6,22,0.01
2012-9-17,81.9,72.2,65.3,70.6,66.1,61.3,100,82,62,29.99,29.84,17,5,19,0.32
2012-9-18,84.7,72.4,64.9,72.7,68.1,64.7,99,88,56,29.99,29.94,15,6,16,0.00
2012-9-19,84.7,74.0,67.3,70.8,68.5,66.2,100,84,61,29.99,29.93,17,4,17,0.00
2012-9-20,87.4,76.1,67.3,72.8,67.9,63.4,100,78,51,29.96,29.91,19,7,20,0.00
2012-9-21,83.3,72.6,64.2,65.2,60.9,55.8,82,68,48,30.09,29.95,18,7,18,0.00
2012-9-22,80.4,70.4,62.1,61.1,56.5,52.6,82,62,46,30.12,30.05,16,6,16,0.00
2012-9-23,84.7,71.1,59.4,69.2,60.7,51.8,100,72,37,30.14,30.07,19,5,19,0.00
2012-9-24,94.3,76.4,60.6,64.6,58.7,52.0,86,59,29,30.08,29.94,11,4,11,0.00
2012-9-25,97.2,80.3,68.2,73.3,66.8,61.2,88,65,34,29.95,29.89,11,6,11,0.00
2012-9-26,99.1,82.3,70.5,72.6,64.9,59.4,77,58,30,30.05,29.94,14,6,16,0.00
2012-10-1,94.5,80.9,69.6,70.5,59.7,50.5,77,51,24,30.13,30.06,19,8,19,0.00
2012-10-2,92.3,77.5,66.2,68.9,64.9,61.1,92,67,42,30.14,30.02,12,4,12,0.00
2012-10-3,91.0,78.7,70.5,68.7,65.4,61.4,79,65,43,30.03,29.94,15,6,15,0.00
2012-10-4,87.6,74.8,66.7,68.0,64.4,59.9,100,71,46,30.00,29.94,21,8,21,0.00
2012-10-5,84.2,73.3,64.0,68.4,64.4,57.5,100,75,49,30.11,29.98,20,5,22,0.00
2012-10-6,84.7,75.9,68.9,63.7,59.0,52.0,71,57,40,30.14,30.08,24,8,27,0.00
2012-10-7,72.3,69.4,66.4,55.7,53.3,50.7,65,57,50,30.10,30.05,8,4,10,0.00
2012-10-17,89.8,76.8,69.1,77.7,71.0,65.6,99,84,61,30.18,30.12,13,5,13,0.00
2012-10-18,87.6,75.7,66.4,69.1,63.7,58.2,92,68,45,30.19,30.14,19,5,19,0.00
2012-10-19,81.7,73.5,68.0,63.8,59.1,53.4,80,61,45,30.20,30.13,23,10,23,0.00
2012-10-20,81.5,70.8,64.4,58.6,54.5,51.1,71,57,38,30.14,30.06,21,9,21,0.00
2012-10-21,73.4,66.4,62.8,60.1,56.3,54.2,83,70,54,30.08,30.04,21,9,21,0.00
2012-10-22,69.8,63.4,60.6,63.2,60.1,55.0,100,89,71,30.05,30.00,17,9,17,0.08
2012-10-23,68.5,62.2,59.9,63.8,61.2,58.2,100,97,82,30.04,29.99,20,8,20,0.13
2012-10-24,69.3,63.0,60.3,64.7,61.5,59.4,100,95,80,30.04,29.99,17,7,19,0.09
2012-10-25,77.0,64.2,56.8,60.9,58.5,56.4,100,83,53,30.04,29.94,20,7,27,0.00
2012-10-26,79.2,64.5,54.1,69.4,58.9,53.9,100,85,50,29.96,29.89,12,3,14,0.00
2012-10-27,78.8,68.2,60.3,70.4,64.4,59.7,100,88,65,29.93,29.83,23,8,26,0.00
2012-10-28,76.6,72.0,68.9,71.5,69.0,65.4,100,90,75,29.92,29.82,34,13,34,0.31
2012-10-29,79.0,70.8,64.9,71.7,67.1,57.9,99,88,71,29.84,29.71,26,11,27,0.09
2012-10-30,73.9,65.3,59.4,57.9,52.9,50.0,83,65,48,29.99,29.80,24,7,24,0.00
2012-10-31,61.9,59.3,55.9,57.9,49.2,45.5,89,69,60,30.01,29.95,14,5,14,0.00
2012-11-1,74.3,67.2,59.9,70.4,63.8,56.4,100,89,77,30.01,29.81,17,4,20,0.00
2012-11-2,72.0,68.7,66.2,70.8,68.3,65.9,99,99,93,29.83,29.80,10,4,13,0.00
2012-11-13,73.9,58.5,50.4,60.4,52.6,48.5,100,82,54,30.26,30.17,14,2,14,0.00
2012-11-14,66.9,59.1,49.3,54.7,51.4,47.5,95,76,62,30.24,30.17,24,8,24,0.00
2012-11-15,63.5,58.7,55.8,53.6,51.7,49.9,85,78,66,30.23,30.15,21,8,21,0.00
2012-11-16,69.4,60.4,56.3,59.2,54.9,52.3,90,82,70,30.16,30.11,14,5,14,0.00
2012-11-17,64.4,60.8,58.3,58.1,56.4,54.3,91,85,79,30.12,30.05,19,6,19,0.00
2012-11-18,69.4,59.8,54.0,57.4,54.5,52.3,96,83,64,30.13,30.06,17,4,17,0.00
2012-11-19,66.0,58.7,51.3,59.8,55.5,50.6,100,90,77,30.12,30.06,12,3,12,0.04
2012-11-20,69.4,61.7,58.3,67.3,61.2,58.0,100,98,87,30.06,30.01,11,3,11,0.71
2012-11-21,61.7,59.2,57.7,61.4,58.9,57.5,99,99,99,30.11,30.03,17,3,19,0.59
2012-11-22,64.0,58.6,55.8,58.7,53.9,50.4,100,85,65,30.23,30.10,30,13,34,0.01
2012-11-23,64.6,57.4,52.9,54.0,51.2,48.3,100,80,63,30.26,30.21,24,6,24,0.00
2012-11-24,62.6,55.9,52.9,55.3,53.3,49.7,100,91,75,30.27,30.19,17,4,17,0.00
2012-11-25,67.1,56.0,49.6,55.1,50.0,46.6,100,81,61,30.27,30.19,20,6,21,0.00
2012-11-26,66.2,55.2,48.6,56.5,51.2,48.3,100,88,58,30.24,30.17,15,3,15,0.00
2012-11-27,64.9,56.7,49.3,59.6,55.0,49.0,100,94,78,30.18,30.11,10,2,10,0.00
2012-11-28,69.1,61.0,54.5,65.9,60.3,54.2,100,98,85,30.12,30.03,19,6,26,0.06
2012-11-29,70.5,64.1,61.0,64.4,60.8,4.3,100,91,10,30.04,29.80,38,13,38,0.66
2012-11-30,69.6,64.3,58.5,67.7,63.5,58.2,100,97,84,29.94,29.81,32,13,38,0.17
2012-12-1,71.6,60.4,55.8,62.7,58.5,55.5,99,94,68,30.05,29.89,23,6,23,0.32
2012-12-2,68.4,60.1,51.3,66.3,59.1,51.0,100,96,82,30.06,29.73,24,7,24,0.00
2012-12-3,58.6,55.8,52.9,53.9,51.0,48.3,90,84,80,29.85,29.79,28,9,44,0.07
2012-12-4,62.6,49.8,43.7,42.1,34.7,29.2,84,58,31,29.91,29.66,34,10,34,0.00
2012-12-5,62.4,52.6,44.1,54.0,47.0,39.7,100,82,67,29.87,29.60,27,8,27,0.05
2012-12-6,61.0,53.5,47.8,51.6,45.6,42.2,90,75,53,29.80,29.68,26,7,32,0.00
2012-12-7,50.5,48.7,47.5,47.2,45.2,43.7,91,88,84,29.84,29.78,14,9,21,0.00
2012-12-16,65.1,56.0,49.1,57.3,53.6,48.8,100,93,69,30.27,29.99,14,5,14,0.00
2012-12-17,68.2,58.9,52.0,60.7,56.5,51.7,100,93,69,29.99,29.85,17,6,17,0.13
2012-12-18,61.3,53.8,50.5,60.3,53.4,50.3,100,99,90,29.86,29.65,21,6,21,0.45
2012-12-19,55.2,49.9,46.2,51.2,48.1,45.8,100,94,80,29.82,29.68,20,8,20,0.00
2012-12-20,50.0,45.5,43.0,46.5,42.7,40.3,100,90,75,30.00,29.80,27,12,27,0.00
2012-12-21,54.1,47.1,41.2,49.7,44.2,40.9,100,90,67,30.01,29.93,15,3,15,0.00
2012-12-22,50.2,46.9,44.4,49.9,46.4,41.4,99,98,88,30.05,29.89,29,9,29,0.13
2012-12-23,50.2,45.1,43.5,43.9,39.9,37.8,100,82,66,30.19,30.04,28,12,28,0.00
2012-12-24,57.7,47.4,42.6,45.2,40.6,34.9,97,78,57,30.31,30.17,21,8,21,0.00
2012-12-25,70.5,52.6,41.0,52.4,45.0,37.0,99,78,43,30.33,30.26,9,3,11,0.00
2012-12-26,69.8,55.7,49.3,59.5,51.9,46.6,100,89,52,30.28,30.19,17,7,17,0.00
2012-12-27,68.9,58.0,51.1,58.6,54.7,50.8,99,90,64,30.19,30.13,17,6,21,0.00
2012-12-28,67.6,57.4,51.8,59.6,54.7,50.4,100,92,63,30.14,29.98,16,6,21,0.00
2012-12-29,55.6,52.8,50.2,55.3,52.5,49.9,99,99,99,30.07,29.93,15,3,17,0.41
2012-12-30,52.5,49.9,47.3,52.3,22.7,-6.5,99,54,10,30.19,30.04,18,7,22,1.74
2012-12-31,55.9,50.5,48.7,51.4,49.8,48.5,100,98,83,30.21,30.16,22,10,22,0.08
2013-1-1,62.1,51.8,45.1,52.7,50.2,44.9,100,95,68,30.21,30.12,16,7,17,0.00